Location: *
(37.9500°N, 27.3666°E)
Time: 04:56:10
(UTC+00:00)

COSMOS 2428 - Pass Details

Date: 24 October 2021
Orbit: 845 x 857 km, 70.9° (Epoch: 03 December)

Event Time Altitude Azimuth Distance (km) Brightness Sun altitude
Rises 17:39:48 0° 196° (SSW) 3,387 6.0 -28.0°
Reaches altitude 10° 17:42:14 10° 195° (SSW) 2,456 5.2 -28.5°
Enters shadow 17:44:57 30° 191° (S) 1,476 3.9 -29.0°
